This is the latest recevied weather packets stored in our database for station/object IZ5TJI-3. If no packets are shown the sender has not sent any weather packets the latest 10 day(s).
| Time | Temp. | Humidity | Pressure | Rain* | Wind** | Luminosity | Snow |
|---|---|---|---|---|---|---|---|
| 1777759221 | 10.56° C | 67% | 1019.9 hPa | 0 mm | - | - | - |
| 1777758321 | 10.56° C | 66% | 1020 hPa | 0 mm | - | - | - |
| 1777757421 | 11.11° C | 64% | 1020.1 hPa | 0 mm | - | - | - |
| 1777756521 | 11.11° C | 63% | 1020 hPa | 0 mm | - | - | - |
| 1777755621 | 11.67° C | 61% | 1019.8 hPa | 0 mm | - | - | - |
| 1777754721 | 12.22° C | 60% | 1019.8 hPa | 0 mm | - | - | - |
| 1777753860 | 12.22° C | 58% | 1019.9 hPa | 0 mm | - | - | - |
| 1777753821 | 12.22° C | 58% | 1019.9 hPa | 0 mm | - | - | - |
| 1777752921 | 12.78° C | 57% | 1019.9 hPa | 0 mm | - | - | - |
| 1777752022 | 13.89° C | 54% | 1020 hPa | 0 mm | - | - | - |
| 1777751122 | 13.89° C | 52% | 1020 hPa | 0 mm | - | - | - |
| 1777750222 | 14.44° C | 49% | 1019.9 hPa | 0 mm | - | - | - |
| 1777749322 | 15.56° C | 47% | 1019.8 hPa | 0 mm | - | - | - |
| 1777748422 | 16.11° C | 43% | 1019.6 hPa | 0 mm | - | - | - |
| 1777747522 | 17.22° C | 41% | 1019.4 hPa | 0 mm | - | - | - |
| 1777746622 | 17.78° C | 40% | 1019.4 hPa | 0 mm | - | - | - |
| 1777745722 | 18.89° C | 39% | 1019.4 hPa | 0 mm | - | - | - |
| 1777744822 | 18.89° C | 37% | 1019.3 hPa | 0 mm | - | - | - |
| 1777743922 | 19.44° C | 37% | 1018.9 hPa | 0 mm | - | - | - |
| 1777743022 | 20.56° C | 37% | 1019 hPa | 0 mm | - | - | - |
| 1777742122 | 20.56° C | 37% | 1019.1 hPa | 0 mm | - | - | - |
| 1777741222 | 21.11° C | 37% | 1019 hPa | 0 mm | - | - | - |
| 1777740322 | 21.11° C | 38% | 1019 hPa | 0 mm | - | - | - |
| 1777739422 | 21.67° C | 36% | 1019.1 hPa | 0 mm | - | - | - |
| 1777738522 | 22.22° C | 38% | 1019 hPa | 0 mm | - | - | - |
* Rain latest hour (hover to see other rain measurements)
** Current wind speed in m/s (hover to see current wind gust speed)